OK2MD-6 Weather Reports


time (UTC)temp
C
wind
direction
speed
KPH
gust
KPH
rain 1hr
cm
rain 24hr
cm
rain mn
cm
humidity
%
barometer
mb
20260505040004 7 0 0.0 0.0 0.00 0.00 0.00 84 1009.4
20260505034003 7 182 0.0 1.6 0.00 0.00 0.00 84 1009.4
20260505032003 7 0 0.0 0.0 0.00 0.00 0.00 83 1009.5
20260505030005 7 182 0.0 1.6 0.00 0.00 0.00 83 1009.7
20260505024003 7 0 0.0 0.0 0.00 0.00 0.00 84 1009.9
20260505022024 7 0 0.0 0.0 0.00 0.00 0.00 82 1009.9
20260505020005 8 0 0.0 0.0 0.00 0.00 0.00 82 1009.9
20260505014024 8 182 0.0 1.6 0.00 0.00 0.00 81 1010.1
20260505012003 8 182 0.0 1.6 0.00 0.00 0.00 80 1010.0
20260505010024 8 0 0.0 0.0 0.00 0.00 0.00 79 1010.2
20260505004003 9 0 0.0 0.0 0.00 0.00 0.00 78 1010.3
20260505002003 10 182 0.0 1.6 0.00 0.00 0.00 76 1010.5
20260505000003 10 182 0.0 1.6 0.00 0.00 0.00 74 1010.7
20260504234003 10 0 0.0 0.0 0.00 0.00 0.00 74 1010.9
20260504232005 11 182 0.0 3.2 0.00 0.00 0.00 73 1011.1
20260504230005 11 182 0.0 3.2 0.00 0.00 0.00 72 1011.1
20260504224003 11 182 0.0 3.2 0.00 0.00 0.00 72 1011.4
20260504222003 11 182 0.0 1.6 0.00 0.00 0.00 72 1011.5
20260504220004 11 182 0.0 3.2 0.00 0.00 0.00 72 1011.6
20260504214003 12 0 0.0 0.0 0.00 0.00 0.00 72 1011.8
20260504212003 12 0 0.0 0.0 0.00 0.00 0.00 71 1011.9
20260504210005 12 0 0.0 0.0 0.00 0.00 0.00 70 1012.0
20260504204003 13 182 0.0 1.6 0.00 0.00 0.00 70 1012.2
20260504202003 13 0 0.0 0.0 0.00 0.00 0.00 69 1012.2
20260504200004 13 182 0.0 1.6 0.00 0.00 0.00 68 1012.4
20260504194003 14 0 0.0 0.0 0.00 0.00 0.00 67 1012.3
20260504192005 15 0 0.0 0.0 0.00 0.00 0.00 66 1012.3
20260504190003 16 0 0.0 0.0 0.00 0.00 0.00 63 1012.4
20260504184003 17 182 0.0 1.6 0.00 0.00 0.00 58 1012.3
20260504182003 19 0 0.0 0.0 0.00 0.00 0.00 53 1012.2
20260504180004 20 0 0.0 0.0 0.00 0.00 0.00 48 1012.0
20260504174005 21 182 0.0 3.2 0.00 0.00 0.00 47 1012.0
20260504172004 22 182 0.0 3.2 0.00 0.00 0.00 44 1012.1
20260504050003 9 170 0.0 1.6 0.00 0.00 0.00 82 1014.6